RH
51 47 58 45 37 35 35 34 32 28 32 31 31 29 28 27 27 28 29 29 30 30 30 29 25 22 21 20 18 17 16 15 14 12 11 9 8 6 6 8 15 27 23 16
36 35 38 35 35 34 34 32 33 31 32 29 30 28 26 27 30 32 37 39 39 37 34 31 27 23 19 17 15 14 12 12 10 10 9 8 9 9 8 8 10 18 14 12
33 37 40 39 35 35 32 31 32 29 32 34 32 26 31 33 33 36 41 40 36 31 27 24 20 18 17 15 13 12 10 8 8 7 7 9 12 19 31 34 25 19 26 30
28 37 39 38 40 42 32 41 34 34 34 33 35 25 28 32 32 33 32 28 22 18 16 13 11 10 9 8 7 7 9 15 23 23 25 31 37 40 36 30 29 30 26 30
35 38 39 42 43 43 44 48 48 46 44 39 37 37 22 27 28 27 23 19 16 14 12 10 10 9 10 11 13 26 41 50 51 47 45 49 46 34 25 21 18 16 25 22
42 39 39 44 42 44 46 46 48 49 46 33 34 38 20 26 26 22 18 17 15 13 12 14 19 22 23 22 18 30 43 38 32 27 25 21 21 27 27 23 20 22 33 33
42 44 47 49 47 48 49 52 51 47 46 43 38 34 28 27 22 19 19 21 17 13 18 29 33 35 32 25 27 31 38 47 44 42 37 30 27 26 23 18 11 8 23 31
54 53 53 50 51 55 56 56 54 48 42 37 34 29 24 22 20 18 21 24 24 29 33 36 45 49 47 48 46 47 47 34 13 7 6 5 6 8 11 6 5 4 5 19
58 58 58 58 60 66 58 52 44 38 33 29 29 25 23 19 18 18 27 34 39 41 46 47 46 37 32 23 15 12 11 8 7 10 31 41 59 73 93 66 34 7 4 3
63 63 60 60 65 66 60 47 39 34 33 26 24 20 17 13 17 31 65 72 57 56 55 44 24 11 8 9 11 14 28 55 74 68 57 58 63 86 99 92 70 60 12 4
81 74 66 68 70 64 53 45 36 27 26 33 20 18 13 19 45 78 85 71 53 53 34 19 18 17 16 27 53 78 100 99 87 65 46 44 74 100 100 99 97 96 76 26
62 80 84 81 73 59 38 36 32 26 24 20 18 13 17 45 81 91 75 50 37 37 23 34 55 39 35 72 87 100 100 100 99 62 49 64 97 99 100 100 100 96 95 78
71 92 87 79 61 51 46 40 24 18 16 14 40 14 64 71 68 51 29 21 33 30 47 66 88 89 82 96 99 100 100 100 95 83 84 94 100 100 100 92 76 78 53 51
91 93 89 67 60 60 58 42 30 16 13 31 12 44 80 79 50 26 19 30 56 72 73 91 100 98 95 100 100 100 100 99 96 91 100 100 100 100 100 100 100 100 100 100
98 86 76 61 65 80 62 42 34 21 17 24 30 56 68 38 24 23 33 54 63 73 90 100 100 100 100 100 100 100 100 100 100 100 100 100 100 100 100 100 99 100 100 100
96 91 85 80 95 86 55 39 25 17 13 46 69 65 39 20 31 37 52 65 60 70 90 96 100 100 100 100 100 100 100 100 100 100 100 100 100 100 100 100 100 100 100 100
98 81 86 94 100 100 58 27 29 20 51 75 73 31 25 33 59 78 88 69 61 83 79 90 97 100 100 100 100 100 87 93 87 90 87 56 76 77 84 97 99 100 100 100
98 97 100 93 81 59 32 28 23 34 76 79 19 26 39 69 73 85 91 67 86 89 75 83 98 100 100 100 100 89 85 38 40 14 17 18 17 15 14 12 11 16 40 60
96 100 97 81 58 40 21 37 55 59 70 26 24 45 63 76 74 78 83 87 95 83 80 92 99 100 100 100 100 97 56 27 15 17 18 17 16 15 14 14 14 13 12 11
97 94 100 88 58 27 34 75 74 79 40 48 55 74 86 81 80 80 86 88 89 91 92 96 100 100 100 100 95 27 17 16 18 20 19 18 18 17 17 14 14 13 12 12
88 93 93 80 53 24 95 94 86 53 48 48 71 74 72 76 83 82 94 94 96 100 100 100 100 100 100 92 27 15 16 19 23 28 27 20 19 18 17 18 18 16 14 12
100 95 85 62 67 86 100 99 94 44 37 59 62 64 64 71 72 86 93 99 99 100 100 100 99 100 98 36 15 14 16 20 24 32 27 19 15 17 18 17 21 20 20 16
53 99 79 57 95 100 100 100 95 78 55 41 58 60 66 72 69 85 92 100 100 100 100 94 100 98 36 18 16 17 16 20 19 23 22 16 16 19 25 27 27 26 23 22
100 84 58 81 100 99 96 100 99 93 91 68 50 58 77 80 83 87 93 100 100 98 100 100 100 92 33 23 16 14 16 22 21 19 16 19 29 28 30 28 26 26 24 24
35 85 100 96 100 99 100 100 99 97 98 74 45 49 72 89 80 88 96 100 100 100 100 100 100 82 35 27 20 19 20 18 17 18 19 30 36 28 26 26 28 26 26 27
98 100 93 99 100 100 100 92 94 91 92 72 39 29 41 87 78 89 94 100 100 100 100 100 100 98 48 31 28 25 25 25 25 27 26 27 34 32 28 35 47 42 32 19
Wind_Speed
33 32 35 36 34 37 39 40 43 44 48 47 45 48 50 51 51 50 51 53 56 58 60 61 60 60 62 64 66 67 69 71 71 71 70 71 71 71 69 69 69 72 72 72
31 30 33 35 37 39 40 43 44 46 49 51 50 50 50 51 51 53 55 56 58 59 60 62 63 65 66 68 69 71 72 74 75 75 76 77 73 71 73 73 72 69 69 75
36 35 35 39 42 42 44 46 47 49 50 51 51 50 49 50 52 55 55 56 56 58 60 61 63 65 67 69 71 74 75 76 76 75 73 72 71 67 63 65 67 70 72 74
43 38 39 44 43 43 45 45 45 45 46 47 49 52 49 50 54 54 55 54 56 57 59 61 63 66 67 68 69 68 66 65 64 64 64 65 64 62 60 61 63 66 69 72
44 45 45 42 42 45 45 45 46 47 49 51 54 55 51 54 54 54 54 58 59 59 60 61 64 64 63 63 62 58 57 57 57 59 61 63 64 65 62 63 64 68 68 74
44 44 43 42 45 45 45 47 47 48 50 53 50 52 51 53 55 55 56 56 57 59 60 60 57 57 57 59 58 56 58 60 61 63 63 64 65 66 67 69 72 69 69 68
42 41 43 44 45 45 45 46 49 51 51 52 52 56 54 53 55 56 57 54 55 56 55 53 54 54 53 52 53 56 58 55 54 52 49 50 51 51 54 56 59 59 58 60
44 43 43 43 45 45 45 45 47 50 52 52 53 57 54 55 57 56 53 50 51 52 52 52 50 49 50 49 47 45 43 44 46 45 44 45 47 49 52 57 59 57 54 57
45 47 46 45 42 38 38 40 42 45 48 51 52 53 54 54 53 52 49 49 50 49 48 48 46 42 41 42 42 40 39 39 39 40 36 34 34 41 38 40 36 46 55 49
47 46 43 40 39 38 37 40 41 42 45 49 49 51 53 51 49 47 45 48 49 49 45 43 41 39 36 36 34 31 29 28 27 26 29 35 37 38 34 31 28 27 29 35
43 40 40 40 38 37 39 39 39 40 43 46 50 50 47 48 48 48 47 49 47 43 42 40 37 34 30 25 22 19 16 18 21 27 30 33 40 31 21 19 20 22 22 23
36 38 38 36 36 39 37 37 39 41 42 44 50 47 43 46 47 42 43 43 43 42 39 33 31 30 22 19 17 11 14 16 23 31 35 32 27 15 12 14 13 11 11 14
35 39 39 37 36 37 40 40 39 41 43 42 47 47 45 43 42 38 39 37 36 34 29 26 26 22 19 15 13 12 11 17 23 25 28 23 4 12 10 11 9 11 7 3
36 37 37 36 36 39 39 39 41 43 45 43 47 45 41 36 36 35 35 30 26 25 24 25 25 17 12 13 13 9 9 14 18 21 17 14 4 4 5 6 7 10 10 7
38 37 35 39 39 42 40 41 42 44 42 47 43 50 27 30 33 30 25 23 24 24 24 23 16 11 11 8 7 8 10 10 10 8 12 16 17 12 11 10 8 5 7 8
34 35 39 40 42 43 41 40 42 42 42 45 48 39 26 29 29 25 26 28 26 24 22 17 13 10 10 5 10 6 2 4 5 5 19 23 23 22 21 19 18 17 12 7
36 37 40 47 47 41 38 39 40 40 42 47 41 28 24 22 21 25 26 23 22 20 17 13 12 11 10 10 10 6 10 15 16 18 21 26 28 30 31 29 27 26 18 13
37 42 37 34 32 36 38 39 36 38 41 37 29 20 18 19 20 20 18 16 18 16 15 14 14 13 11 12 10 11 11 10 12 15 18 19 21 23 24 26 26 26 25 25
38 31 32 33 36 39 36 33 38 42 30 31 21 17 17 20 21 20 19 18 18 15 16 14 14 12 9 13 15 13 8 7 9 12 14 16 17 19 21 22 22 22 24 24
32 31 33 34 38 41 34 34 37 37 23 23 18 17 18 20 20 20 19 16 13 14 16 16 16 13 16 14 14 10 7 6 6 9 10 11 14 16 17 18 18 19 20 21
32 33 34 35 38 39 31 34 33 27 19 21 19 19 20 22 20 19 17 13 13 14 14 15 15 13 16 16 13 11 8 5 3 5 4 7 8 9 11 12 14 16 18 19
32 33 33 33 33 35 31 29 25 23 23 22 19 20 21 21 20 19 18 14 13 12 13 13 13 18 19 16 14 12 10 7 4 1 4 8 10 10 11 12 14 16 17 20
33 30 33 33 35 39 34 28 21 21 20 23 23 21 22 21 21 19 17 16 14 12 11 12 17 22 18 17 16 14 11 9 8 7 7 10 11 11 13 14 17 20 22 23
28 31 35 37 36 36 29 23 23 20 21 22 22 23 23 21 20 20 17 17 16 15 13 17 22 20 20 19 17 16 14 13 13 12 12 12 14 14 13 16 19 21 22 24
30 30 35 36 31 28 24 25 25 25 25 25 24 24 26 24 22 21 20 19 19 17 18 20 23 23 22 21 19 18 17 16 16 16 16 17 18 17 18 20 23 24 25 27
27 35 38 34 28 28 28 29 31 30 30 28 26 25 28 29 25 23 21 21 21 20 21 22 24 23 23 23 21 21 21 21 20 20 21 22 22 22 24 25 25 26 28 28
Wind_Direction
280 280 278 275 280 283 281 280 280 280 281 282 282 284 285 285 284 282 281 282 282 282 281 281 280 279 278 277 277 276 276 275 274 273 271 274 274 272 269 264 258 255 255 254
279 276 276 281 283 283 284 283 283 282 283 284 284 284 284 283 281 281 281 280 280 282 282 282 283 283 283 282 281 280 280 279 278 277 276 276 275 272 269 267 266 261 258 253
277 278 275 278 280 281 280 279 279 279 280 283 283 283 282 283 284 284 282 282 281 281 280 281 281 281 282 282 281 281 281 280 280 279 277 276 275 272 266 261 262 261 257 253
275 275 276 279 280 279 278 278 277 277 278 279 279 280 284 285 282 281 281 281 281 281 282 281 281 281 281 281 281 281 281 281 282 281 280 277 273 267 264 258 258 258 259 256
278 279 280 280 278 277 278 279 279 280 281 280 282 283 286 285 285 284 284 283 284 286 286 286 287 287 287 287 287 287 286 283 280 279 279 277 275 272 272 270 269 270 265 259
272 275 276 278 279 280 281 281 280 278 277 277 281 282 284 283 283 284 285 287 289 288 288 288 287 287 287 288 286 284 284 283 281 281 279 277 274 272 271 272 272 270 267 263
272 272 275 278 278 279 279 278 278 277 277 279 279 278 282 282 284 288 292 294 292 289 286 286 289 288 287 285 285 285 285 286 286 285 283 281 280 276 271 269 267 265 264 262
272 272 272 276 277 278 278 277 277 279 278 279 281 283 286 288 289 291 291 292 287 286 287 290 290 289 288 290 290 290 291 289 289 289 286 284 284 284 282 277 268 264 259 257
275 275 278 278 278 278 277 276 276 277 279 280 282 286 289 290 291 292 295 292 293 293 291 292 293 293 293 293 293 295 295 295 292 292 295 293 294 299 294 287 280 264 262 263
274 277 276 277 278 279 276 274 276 279 282 283 289 289 294 295 299 302 303 298 296 296 297 297 297 297 296 293 294 297 299 297 295 291 288 302 303 300 296 294 281 279 268 255
272 271 274 276 278 275 274 275 279 280 284 289 295 294 302 304 303 302 296 294 295 295 296 298 299 299 295 289 296 299 302 306 311 310 306 311 307 303 301 294 288 282 275 264
269 273 274 274 271 269 270 277 281 285 289 293 294 301 303 301 299 295 288 290 291 292 294 299 302 299 289 296 299 311 314 311 317 315 316 320 320 316 332 322 307 292 285 267
268 271 272 268 268 269 273 278 284 287 292 298 297 304 305 301 297 290 288 289 289 296 296 301 303 300 299 294 295 298 302 307 325 334 330 333 317 343 8 18 17 3 337 306
265 268 270 274 273 274 278 283 288 293 295 301 297 300 303 296 283 285 286 290 298 300 298 300 304 303 294 306 289 279 281 326 339 345 2 18 6 35 52 38 42 29 10 346
266 266 266 272 273 276 277 284 291 295 298 296 298 298 302 278 280 286 287 286 291 296 300 303 300 293 298 290 315 233 314 317 339 32 35 41 47 55 49 35 33 74 61 32
263 268 269 271 274 270 277 287 292 295 294 293 297 299 275 286 288 291 285 286 286 291 297 294 293 283 272 246 278 293 348 18 48 66 59 64 66 61 56 49 42 35 29 12
267 274 274 273 266 271 276 287 290 292 291 297 293 291 291 287 292 291 290 283 283 287 280 283 281 272 256 269 258 122 94 74 66 63 62 56 50 48 47 51 54 50 42 30
264 268 278 273 279 276 284 288 294 287 295 287 286 288 284 286 298 296 288 282 290 276 265 266 271 267 260 264 166 131 117 98 84 73 67 59 54 52 51 52 49 45 40 38
265 267 275 280 284 286 287 295 291 287 286 277 283 284 280 292 300 302 290 287 287 255 253 257 260 258 247 209 153 134 133 122 91 73 58 52 49 49 45 42 37 35 33 32
265 271 279 285 286 285 295 295 285 284 271 265 274 280 284 295 299 299 294 288 264 250 255 254 254 241 232 174 141 160 164 146 120 90 59 41 34 32 34 32 30 28 27 24
265 270 276 278 282 285 299 282 284 280 263 260 262 271 285 289 299 296 293 275 265 258 256 251 245 244 202 161 177 184 179 187 157 87 51 19 15 19 17 14 12 11 13 12
262 269 269 276 277 288 295 277 279 278 270 269 272 276 281 283 293 296 288 274 267 258 248 241 238 214 175 179 194 203 203 211 222 261 328 328 329 339 346 351 354 358 359 1
262 266 273 270 279 285 285 265 271 282 286 278 272 274 281 281 287 292 285 273 264 259 248 240 227 190 189 198 207 220 228 239 253 270 285 296 310 316 323 335 346 349 349 346
258 271 274 276 286 286 268 255 268 280 288 294 281 268 272 276 279 285 281 269 266 261 260 238 215 194 207 213 220 228 235 242 254 266 278 291 297 296 312 329 332 331 329 330
261 274 284 285 285 270 253 251 270 280 284 287 280 270 264 269 272 274 278 266 259 254 249 247 226 204 218 224 232 240 248 256 262 269 278 284 291 299 310 313 313 314 317 318
275 286 285 285 272 248 248 258 271 277 281 282 275 273 263 258 266 266 271 267 257 252 248 243 224 219 228 236 242 250 257 261 266 269 274 281 288 295 300 301 303 306 308 310